When you browse on this site, cookies collect data to enhance your experience and personalize the content and advertising you see.
Visit our Privacy Policy to learn more. By continuing to use the site, you agree to this use of cookies and data.
  • In Hungary
  • List of Countries
  • For 7 days
  • Water Temperature
  • Satellite Maps
  • Weather Map
  • News
  • Weather Widgets
  • user-avatar
    Login

    Hourly Weather Yomra

    Today, 22 February, Friday

    Time Temperature Precipitation Wind Pressure Humidity
    00:00 +9°C° 0.1 mm 2 mps 767 mmHg 82%
    01:00 +8°C° 0.1 mm 2 mps 767 mmHg 84%
    02:00 +8°C° 0.1 mm 2 mps 767 mmHg 86%
    03:00 +8°C° 0 mm 2 mps 767 mmHg 90%
    04:00 +8°C° 0.2 mm 2 mps 767 mmHg 91%
    05:00 +8°C° 0.2 mm 2 mps 767 mmHg 91%
    06:00 +8°C° 0.2 mm 2 mps 767 mmHg 92%
    07:00 +8°C° 0.1 mm 2 mps 767 mmHg 88%
    08:00 +9°C° 0.1 mm 1 mps 766 mmHg 84%
    09:00 +10°C° 0 mm 1 mps 766 mmHg 78%
    10:00 +9°C° 0 mm 2 mps 766 mmHg 77%
    11:00 +10°C° 0 mm 2 mps 765 mmHg 75%
    12:00 +11°C° 0 mm 3 mps 765 mmHg 74%
    13:00 +11°C° 0 mm 3 mps 764 mmHg 74%
    14:00 +11°C° 0 mm 3 mps 764 mmHg 75%
    15:00 +11°C° 0 mm 3 mps 763 mmHg 75%
    16:00 +10°C° 0 mm 3 mps 763 mmHg 77%
    17:00 +10°C° 0 mm 3 mps 763 mmHg 79%
    18:00 +8°C° 0 mm 4 mps 763 mmHg 81%
    19:00 +9°C° 0 mm 3 mps 763 mmHg 77%
    20:00 +9°C° 0 mm 3 mps 763 mmHg 72%
    21:00 +9°C° 0 mm 3 mps 763 mmHg 68%
    22:00 +9°C° 0 mm 3 mps 763 mmHg 65%
    23:00 +8°C° 0 mm 4 mps 764 mmHg 63%

    Tomorrow, 23 February, Saturday

    Time Temperature Precipitation Wind Pressure Humidity
    00:00 +8°C° 0 mm 4 mps 764 mmHg 61%
    01:00 +8°C° 0 mm 4 mps 764 mmHg 60%
    02:00 +8°C° 0 mm 4 mps 764 mmHg 59%
    03:00 +9°C° 0 mm 5 mps 764 mmHg 57%
    04:00 +8°C° 0 mm 5 mps 764 mmHg 57%
    05:00 +8°C° 0 mm 5 mps 764 mmHg 57%
    06:00 +8°C° 0 mm 5 mps 764 mmHg 57%
    07:00 +9°C° 0 mm 5 mps 764 mmHg 56%
    08:00 +10°C° 0 mm 5 mps 764 mmHg 55%
    09:00 +12°C° 0 mm 5 mps 764 mmHg 54%
    10:00 +13°C° 0 mm 4 mps 764 mmHg 53%
    11:00 +15°C° 0 mm 2 mps 764 mmHg 52%
    12:00 +18°C° 0 mm 1 mps 764 mmHg 51%
    13:00 +18°C° 0 mm 1 mps 764 mmHg 51%
    14:00 +17°C° 0 mm 2 mps 764 mmHg 51%
    15:00 +17°C° 0 mm 2 mps 764 mmHg 51%
    16:00 +15°C° 0 mm 2 mps 764 mmHg 57%
    17:00 +14°C° 0 mm 2 mps 765 mmHg 63%
    18:00 +12°C° 0 mm 2 mps 765 mmHg 69%
    19:00 +12°C° 0 mm 2 mps 765 mmHg 69%
    20:00 +12°C° 0 mm 2 mps 766 mmHg 68%
    21:00 +10°C° 0 mm 2 mps 766 mmHg 68%
    22:00 +10°C° 0 mm 2 mps 767 mmHg 69%
    23:00 +10°C° 0 mm 3 mps 767 mmHg 71%

    Day after tomorrow, 24 February, Sunday

    Time Temperature Precipitation Wind Pressure Humidity
    00:00 +10°C° 0 mm 3 mps 767 mmHg 72%
    01:00 +9°C° 0 mm 3 mps 767 mmHg 74%
    02:00 +9°C° 0 mm 3 mps 768 mmHg 77%
    03:00 +9°C° 0 mm 3 mps 768 mmHg 79%
    04:00 +9°C° 0 mm 3 mps 768 mmHg 81%
    05:00 +8°C° 0 mm 3 mps 768 mmHg 83%
    06:00 +8°C° 0 mm 2 mps 768 mmHg 85%
    07:00 +8°C° 0.1 mm 2 mps 768 mmHg 85%
    08:00 +9°C° 0.1 mm 2 mps 768 mmHg 86%
    09:00 +9°C° 0.1 mm 2 mps 768 mmHg 86%
    10:00 +9°C° 0.2 mm 2 mps 768 mmHg 88%
    11:00 +9°C° 0.2 mm 3 mps 768 mmHg 90%
    12:00 +9°C° 0.2 mm 3 mps 768 mmHg 92%
    13:00 +8°C° 0.3 mm 4 mps 768 mmHg 92%
    14:00 +7°C° 0.3 mm 4 mps 768 mmHg 93%
    15:00 +7°C° 0.3 mm 5 mps 768 mmHg 93%
    16:00 +6°C° 0.4 mm 4 mps 769 mmHg 93%
    17:00 +6°C° 0.4 mm 4 mps 769 mmHg 92%
    18:00 +5°C° 0.4 mm 4 mps 769 mmHg 92%
    19:00 +5°C° 0.3 mm 3 mps 770 mmHg 92%
    20:00 +5°C° 0.3 mm 3 mps 770 mmHg 92%
    21:00 +5°C° 0.3 mm 3 mps 771 mmHg 92%
    22:00 +5°C° 0.2 mm 3 mps 771 mmHg 92%
    23:00 +4°C° 0.2 mm 3 mps 771 mmHg 92%

    25 February, Monday

    Time Temperature Precipitation Wind Pressure Humidity
    00:00 +4°C° 0.2 mm 3 mps 772 mmHg 92%
    01:00 +4°C° 0.2 mm 3 mps 772 mmHg 92%
    02:00 +4°C° 0.2 mm 3 mps 772 mmHg 92%
    03:00 +4°C° 0.2 mm 3 mps 772 mmHg 91%
    04:00 +3°C° 0.2 mm 3 mps 772 mmHg 91%
    05:00 +3°C° 0.2 mm 3 mps 772 mmHg 91%
    06:00 +3°C° 0.2 mm 3 mps 772 mmHg 91%
    07:00 +4°C° 0.2 mm 2 mps 772 mmHg 90%
    08:00 +4°C° 0.2 mm 2 mps 772 mmHg 90%
    09:00 +4°C° 0.2 mm 2 mps 772 mmHg 89%
    10:00 +5°C° 0.1 mm 2 mps 772 mmHg 89%
    11:00 +4°C° 0.1 mm 3 mps 771 mmHg 89%
    12:00 +4°C° 0.1 mm 3 mps 771 mmHg 89%
    13:00 +4°C° 0.1 mm 3 mps 771 mmHg 89%
    14:00 +5°C° 0.1 mm 2 mps 770 mmHg 89%
    15:00 +5°C° 0.1 mm 2 mps 770 mmHg 89%
    16:00 +4°C° 0 mm 2 mps 770 mmHg 89%
    17:00 +4°C° 0 mm 2 mps 769 mmHg 89%
    18:00 +5°C° 0 mm 1 mps 769 mmHg 90%
    19:00 +5°C° 0 mm 1 mps 770 mmHg 90%
    20:00 +4°C° 0 mm 1 mps 770 mmHg 90%
    21:00 +4°C° 0 mm 1 mps 770 mmHg 90%
    22:00 +4°C° 0 mm 1 mps 769 mmHg 87%
    23:00 +4°C° 0 mm 1 mps 769 mmHg 84%

    26 February, Tuesday

    Time Temperature Precipitation Wind Pressure Humidity
    00:00 +4°C° 0 mm 1 mps 769 mmHg 81%
    01:00 +3°C° 0 mm 2 mps 768 mmHg 79%
    02:00 +3°C° 0 mm 2 mps 768 mmHg 77%
    03:00 +3°C° 0 mm 2 mps 767 mmHg 75%
    04:00 +3°C° 0 mm 2 mps 767 mmHg 74%
    05:00 +3°C° 0 mm 2 mps 766 mmHg 73%
    06:00 +3°C° 0 mm 2 mps 765 mmHg 72%
    07:00 +4°C° 0 mm 2 mps 765 mmHg 70%
    08:00 +5°C° 0 mm 2 mps 764 mmHg 68%
    09:00 +6°C° 0 mm 2 mps 764 mmHg 67%
    10:00 +7°C° 0 mm 2 mps 763 mmHg 69%
    11:00 +8°C° 0 mm 3 mps 762 mmHg 71%
    12:00 +9°C° 0 mm 3 mps 761 mmHg 74%
    13:00 +8°C° 0 mm 3 mps 760 mmHg 79%
    14:00 +7°C° 0 mm 3 mps 759 mmHg 85%
    15:00 +5°C° 0 mm 3 mps 758 mmHg 91%
    16:00 +5°C° 0.1 mm 3 mps 758 mmHg 91%
    17:00 +4°C° 0.1 mm 3 mps 757 mmHg 92%
    18:00 +4°C° 0.1 mm 3 mps 756 mmHg 92%
    19:00 +5°C° 0.1 mm 2 mps 756 mmHg 92%
    20:00 +5°C° 0.1 mm 2 mps 756 mmHg 91%
    21:00 +4°C° 0.1 mm 2 mps 756 mmHg 91%
    22:00 +4°C° 0 mm 2 mps 755 mmHg 89%
    23:00 +5°C° 0 mm 1 mps 755 mmHg 88%

    27 February, Wednesday

    Time Temperature Precipitation Wind Pressure Humidity
    00:00 +5°C° 0 mm 1 mps 754 mmHg 86%
    01:00 +4°C° 0 mm 2 mps 754 mmHg 84%
    02:00 +4°C° 0 mm 2 mps 753 mmHg 81%
    03:00 +4°C° 0 mm 2 mps 753 mmHg 79%
    04:00 +4°C° 0.1 mm 2 mps 753 mmHg 76%
    05:00 +4°C° 0.1 mm 2 mps 753 mmHg 74%
    06:00 +4°C° 0.1 mm 2 mps 752 mmHg 72%
    07:00 +5°C° 0.1 mm 2 mps 752 mmHg 69%
    08:00 +6°C° 0.1 mm 2 mps 752 mmHg 66%
    09:00 +8°C° 0.1 mm 1 mps 752 mmHg 63%
    10:00 +7°C° 0 mm 2 mps 752 mmHg 63%
    11:00 +8°C° 0 mm 2 mps 752 mmHg 63%
    12:00 +9°C° 0 mm 2 mps 751 mmHg 63%
    13:00 +8°C° 0.2 mm 2 mps 751 mmHg 69%
    14:00 +8°C° 0.2 mm 2 mps 751 mmHg 74%
    15:00 +7°C° 0.2 mm 3 mps 751 mmHg 80%
    16:00 +5°C° 0.5 mm 3 mps 751 mmHg 82%
    17:00 +5°C° 0.5 mm 3 mps 751 mmHg 85%
    18:00 +6°C° 0.5 mm 2 mps 752 mmHg 87%
    19:00 +4°C° 0.4 mm 3 mps 752 mmHg 86%
    20:00 +4°C° 0.4 mm 3 mps 753 mmHg 86%
    21:00 +4°C° 0.4 mm 3 mps 753 mmHg 85%
    22:00 +4°C° 0.2 mm 3 mps 754 mmHg 84%
    23:00 +4°C° 0.2 mm 3 mps 754 mmHg 84%
    Show more